Regional Weather Roundup
Issued by NWS

Home | Current Version | Previous Version | Text Only | Print | Product List | Glossary Off
Versions: 1 2 3 4 5 6 7 8 9 10 11 12 13 14 15 16 17 18 19 20 21 22 23 24 25 26 27 28 29 30 31 32 33 34 35 36 37 38 39 40 41 42 43 44 45 46 47 48 49 50

558
ASUS43 KOAX 121510
RWRNE

WEATHER ROUNDUP FOR NEBRASKA
NATIONAL WEATHER SERVICE OMAHA NE
900 AM CST FRI FEB 12 2016

NOTES: SATELLITE DATA IS BEING USED TO AUGMENT CLOUD COVER ABOVE
       12000 FEET.
       "FAIR" INDICATES FEW OR NO CLOUDS BELOW 12,000 FEET WITH NO
       SIGNIFICANT WEATHER AND/OR OBSTRUCTIONS TO VISIBILITY.

  * THESE STATIONS DO NOT REPORT WEATHER SUCH AS RAIN...SNOW OR FOG.

NEZ001>004-019>022-054>056-121600-
NEBRASKA PANHANDLE

CITY           SKY/WX    TMP DP  RH WIND       PRES   REMARKS
SCOTTSBLUFF    CLOUDY    33  29  85 W3        30.31R
ALLIANCE       FOG       29  29 100 NE9       30.33R VSB 1/4 WCI  20
CHADRON        CLOUDY    31  29  92 NE9       30.39R WCI  23
KIMBALL        CLOUDY    36  29  76 NW5       30.31R WCI  32
SIDNEY         CLOUDY    36  29  75 W8        30.31R WCI  30
$$

NEZ057>060-069>072-079>082-121600-
SOUTHWEST NEBRASKA

CITY           SKY/WX    TMP DP  RH WIND       PRES   REMARKS
NORTH PLATTE   CLOUDY    33  29  85 N10       30.37R WCI  25
IMPERIAL       CLOUDY    30  26  85 CALM      30.35R
LEXINGTON      CLOUDY    33  29  87 N5        30.38R WCI  28
MCCOOK         CLOUDY    28  26  92 N5        30.38R WCI  23
OGALLALA       FOG       30  28  94 CALM      30.35R VSB 1/4
$$

NEZ005>010-023>029-035>040-094-121600-
NORTH CENTRAL NEBRASKA

CITY           SKY/WX    TMP DP  RH WIND       PRES   REMARKS
VALENTINE      CLOUDY    24  20  84 N9        30.42R WCI  14
AINSWORTH      CLOUDY    24  23  96 N10       30.40R FOG     WCI  14
BROKEN BOW     CLOUDY    32  27  81 N10       30.37R WCI  24
O`NEILL        CLOUDY    21  19  93 N12       30.44R WCI   9
ORD            CLOUDY    28  25  88 NW6       30.39R WCI  22
THEDFORD       CLOUDY    31  30  96 N9        30.39R FOG     WCI  23
$$

NEZ041-046>049-061>064-073>077-083>087-121600-
SOUTH CENTRAL NEBRASKA

CITY           SKY/WX    TMP DP  RH WIND       PRES   REMARKS
GRAND ISLAND   CLOUDY    28  23  81 W3        30.41R
AURORA         CLOUDY    28  25  87 N5        30.41R WCI  23
HASTINGS       CLOUDY    29  23  78 N5        30.40R WCI  24
HEBRON         CLOUDY    28  25  86 N8        30.42R WCI  20
HOLDREGE       CLOUDY    31  28  89 NE7       30.38S WCI  24
KEARNEY *      CLOUDY    28  25  86 NE7       30.40R WCI  21
YORK           CLOUDY    27  25  93 N7        30.42R WCI  19
$$

NEZ011>018-030>034-042>045-121600-
NORTHEAST NEBRASKA

CITY           SKY/WX    TMP DP  RH WIND       PRES   REMARKS
NORFOLK        CLOUDY    21  14  74 N15       30.43R WCI   8
ALBION         CLOUDY    24  21  91 N9        30.42R FOG     WCI  14
BLAIR          CLOUDY    22  18  84 N12       30.41R WCI  10
COLUMBUS *     CLOUDY    23  12  63 N10       30.43R WCI  12
FREMONT        CLOUDY    23  17  77 NW13G18   30.44R WCI  11
TEKAMAH        CLOUDY    22  17  81 N13       30.45R WCI  10
WAYNE          CLOUDY    20  14  77 N14       30.44R WCI   7
$$

NEZ050>053-065>068-078-088>093-121600-
SOUTHEAST NEBRASKA

CITY           SKY/WX    TMP DP  RH WIND       PRES   REMARKS
LINCOLN        CLOUDY    25  19  78 N9        30.45R WCI  15
OMAHA EPPLEY   CLOUDY    22  17  81 N15       30.43R WCI   9
BEATRICE       CLOUDY    26  21  83 N8        30.44R WCI  17
FALLS CITY     CLOUDY    27  20  75 N12       30.42R WCI  17
NEBRASKA CITY  CLOUDY    24  18  80 N10       30.42R WCI  13
PLATTSMOUTH    CLOUDY    22  17  82 N12       30.43R WCI  11
$$

NEZ044-045-051>053-067-121600-
OMAHA AREA

CITY           SKY/WX    TMP DP  RH WIND       PRES   REMARKS
OMAHA EPPLEY   CLOUDY    22  17  81 N15       30.43R WCI   9
BLAIR          CLOUDY    22  18  84 N12       30.41R WCI  10
FREMONT        CLOUDY    23  17  77 NW13G18   30.44R WCI  11
MILLARD        CLOUDY    23  17  78 N7        30.44R WCI  15
OFFUTT AFB     CLOUDY    22  17  78 N10G18    30.43R WCI  11
PLATTSMOUTH    CLOUDY    22  17  82 N12       30.43R WCI  11
WAHOO          CLOUDY    24  20  83 N14       30.43R WCI  12
$$




USA.gov is the U.S. government's official web portal to all federal, state and local government web resources and services.